sat.trackr.live / text

‹ back to catalog

STARLINK-37451

NORAD 69471 · 2026-127AE

PAYLOAD ACTIVE UNKNOWN

§ Identity

Operator
Country
US
Launch date
2026-06-08
Launch site
AFETR
Launch vehicle
Mass (kg)
RCS (m²)

Purposes: comms

External: N2YO · Heavens-Above · Gunter

§ Orbital elements

Epoch: 2026-09-19T05:50:36.375648Z

Period
93.85 min
Inclination
53.1561°
Eccentricity
0.0001481
Mean motion
15.34413086 rev/d
Perigee alt
461.7 km
Apogee alt
463.7 km
Semi-major
6,840.8 km
B*
6.1234e-4
RAAN
171.2374°
Arg perigee
93.2422°
Mean anomaly
266.8750°
Rev number
1,600

§ Raw data

STARLINK-374511 69471U 26127AE  26262.24347657  .00020378  00000+0  61234-3 0  99992 69471  53.1561 171.2374 0001481  93.2422 266.8750 15.34413086 16007

JSON: /api/v1/satellites/69471 · /tle

For live sub-satellite position, see the globe view (requires WebGL).

§ Visibility from observer

Set your observer location to see the next 7 days of passes ≥ 10°. The values pass through the URL so the page stays shareable.

No JS? Fill the form by hand. The geolocation button needs JavaScript.